[[{"header":{"parameterUnit":"m.s-1","parameterCategory":1,"la1":30.2991,"la2":30.254,"lo1":-89.0895,"lo2":-89.0444,"dy":0.0017,"dx":0.0017,"nx":28,"ny":28,"refTime":"2023-09-25T03:00:00:Z","depth":0,"parameterNumber":2,"parameterNumberName":"U-component_of_WINDS"},"data":[0,0,0,0,0,0,0,0,0,0,0,0,0,0,0,0,0,0,0,0,0,0,0,0,0,0,0,0,0,0,0,0,0,0,0,0,0,0,0,0,0,0,0,0,0,0,0,0,0,0,0,0,0,0,0,0,0,0,-2.248,-2.248,0,-2.2446,-2.2446,-2.2446,-2.2353,-2.2351,-2.2348,-2.2347,-2.2313,-2.2314,-2.2315,0,0,0,0,0,0,0,0,0,0,0,0,0,-2.2463,-2.2464,-2.248,-2.248,-2.2479,-2.2446,-2.2446,-2.2446,-2.2353,-2.235,-2.2348,-2.2346,-2.2313,-2.2314,-2.2315,0,0,0,0,0,0,0,0,0,0,0,0,0,-2.2454,-2.2464,-2.248,-2.2429,-2.2424,-2.2447,-2.2446,-2.2445,-2.2353,-2.235,-2.2347,-2.2345,-2.2312,-2.2314,-2.2315,-2.2385,0,0,-2.232,-2.232,0,0,0,0,0,0,0,0,-2.2455,-2.2455,-2.2437,-2.2432,-2.2427,-2.2401,-2.2428,-2.2425,-2.2354,-2.238,-2.2347,-2.2343,-2.2345,-2.2343,-2.2343,-2.2383,-2.2382,-2.232,-2.2321,-2.2321,-2.2322,0,0,0,0,0,0,0,-2.2455,-2.2456,-2.2467,-2.2437,-2.2431,-2.2407,-2.2403,-2.2427,-2.238,-2.2378,-2.2371,-2.2368,-2.2341,-2.2342,-2.2342,-2.2381,-2.232,-2.2321,-2.2322,-2.2322,-2.2473,-2.2476,0,0,0,0,0,0,-2.2463,-2.2457,-2.2468,-2.2466,-2.2434,-2.241,-2.2405,-2.2412,-2.2379,-2.2371,-2.2371,-2.2364,-2.2341,-2.234,-2.234,-2.2418,-2.2321,-2.2323,-2.2323,-2.247,-2.2474,-2.2477,0,0,0,0,0,0,-2.2463,-2.2465,-2.2469,-2.2459,-2.2458,-2.2414,-2.2422,-2.2413,-2.2414,-2.2374,-2.2365,-2.2381,-2.2339,-2.2338,-2.2374,-2.2416,-2.2323,-2.2325,-2.2467,-2.2471,-2.2476,-2.2575,0,0,0,0,0,0,-2.2463,-2.2466,-2.2492,-2.2461,-2.2459,-2.2504,-2.2425,-2.2415,-2.2417,-2.2407,-2.2381,-2.2373,-2.2336,-2.2372,-2.2375,-2.2416,-2.2326,-2.2463,-2.2469,-2.2474,-2.2568,-2.2582,-2.2595,0,0,0,0,0,-2.2463,-2.2522,-2.2494,-2.2496,-2.2491,-2.2506,-2.2505,-2.2461,-2.2421,-2.2446,-2.242,-2.2374,-2.2411,-2.2376,-2.2379,-2.2421,-2.246,-2.2467,-2.2474,-2.2562,-2.2579,-2.2595,0,0,0,0,0,0,-2.256,-2.2517,-2.2485,-2.2536,-2.2525,-2.249,-2.2522,-2.2482,-2.2483,-2.2474,-2.242,-2.2415,-2.2457,-2.2443,-2.2405,-2.2485,-2.2428,-2.2436,-2.2493,-2.251,-2.2523,-2.2526,-2.2327,0,0,0,0,0,-2.2588,-2.2604,-2.2565,-2.2613,-2.2609,-2.2567,-2.2572,-2.2539,-2.2525,-2.2521,-2.2497,-2.2486,-2.2495,-2.2502,-2.2508,-2.2565,-2.2557,-2.2595,-2.2609,-2.262,-2.2628,-2.2655,-2.2671,-2.2501,-2.2501,-2.25,0,0,-2.2644,-2.2623,-2.2636,-2.2632,-2.262,-2.2637,-2.2564,-2.2586,-2.2597,-2.2524,-2.2555,-2.2538,-2.2522,-2.2568,-2.2587,-2.2557,-2.2673,-2.2629,-2.2639,-2.264,-2.2664,-2.268,-2.2694,-2.2505,-2.2505,-2.2504,0,0,-2.2756,-2.2742,-2.2779,-2.2768,-2.2751,-2.2721,-2.2731,-2.2701,-2.2687,-2.2717,-2.2662,-2.2675,-2.2692,-2.2682,-2.2679,-2.2785,-2.2743,-2.2789,-2.286,-2.2887,-2.2901,-2.2912,-2.2948,-2.2962,-2.2797,-2.2797,-2.2797,0,-2.2829,-2.2852,-2.2804,-2.2829,-2.2828,-2.2762,-2.2799,-2.279,-2.2776,-2.2777,-2.2743,-2.2761,-2.2746,-2.2788,-2.2814,-2.2814,-2.2822,-2.2791,-2.2903,-2.2914,-2.2924,-2.2958,-2.2972,-2.2802,-2.2802,-2.2801,-2.2801,0,-2.2942,-2.2959,-2.2992,-2.2978,-2.2981,-2.3012,-2.2968,-2.2977,-2.2943,-2.2917,-2.2948,-2.2928,-2.2927,-2.2935,-2.2903,-2.2972,-2.2953,-2.2913,-2.2853,-2.2947,-2.2977,-2.299,-2.281,-2.2808,-2.2807,-2.2805,0,0,-2.3114,-2.3072,-2.3085,-2.3077,-2.3052,-2.3064,-2.3092,-2.3091,-2.3098,-2.309,-2.3111,-2.3126,-2.3087,-2.3084,-2.305,-2.3074,-2.3157,-2.3029,-2.3028,-2.3053,-2.323,-2.326,-2.3276,-2.3129,-2.3131,-2.3133,-2.3231,0,-2.3218,-2.3263,-2.3219,-2.3272,-2.3286,-2.3223,-2.3246,-2.3233,-2.321,-2.3218,-2.3192,-2.3202,-2.3151,-2.3149,-2.317,-2.3143,-2.3192,-2.3135,-2.3147,-2.3148,-2.3151,-2.3292,-2.3325,-2.3418,-2.3243,-2.3245,-2.3246,0,-2.3346,-2.3343,-2.3397,-2.3366,-2.337,-2.3393,-2.3387,-2.3396,-2.3379,-2.336,-2.3356,-2.3315,-2.3338,-2.3281,-2.3312,-2.3275,-2.3277,-2.3264,-2.3267,-2.3265,-2.3202,-2.3293,-2.3447,-2.346,-2.3265,-2.3263,-2.3262,0,-2.3465,-2.3474,-2.3506,-2.3502,-2.3467,-2.3484,-2.3471,-2.3451,-2.3452,-2.3447,-2.3447,-2.3446,-2.3445,-2.3444,-2.3403,-2.3366,-2.3439,-2.3379,-2.3423,-2.3424,-2.344,-2.344,-2.3595,-2.3444,-2.3444,-2.3444,-2.3444,0,-2.3585,-2.362,-2.3559,-2.3579,-2.3616,-2.3565,-2.3603,-2.3583,-2.3566,-2.358,-2.3525,-2.354,-2.3485,-2.3494,-2.3462,-2.3491,-2.3492,-2.3476,-2.3467,-2.3481,-2.3482,-2.348,-2.3472,-2.3448,-2.3447,-2.3446,-2.3445,0,-2.3723,-2.3684,-2.3715,-2.3679,-2.3671,-2.37,-2.3669,-2.3685,-2.3658,-2.3677,-2.3678,-2.3635,-2.3642,-2.3601,-2.3601,-2.3579,-2.3624,-2.3605,-2.363,-2.3623,-2.3669,-2.3664,-2.3827,-2.3845,-2.3685,-2.3686,-2.3688,0,-2.3802,-2.3827,-2.3794,-2.3799,-2.3788,-2.3798,-2.3799,-2.375,-2.3753,-2.3734,-2.3753,-2.3755,-2.3755,-2.3769,-2.3737,-2.3736,-2.3715,-2.3772,-2.3715,-2.3727,-2.3714,-2.3712,-2.3714,-2.3784,-2.3786,-2.3788,-2.3789,0,-2.3945,-2.3924,-2.3927,-2.3923,-2.3925,-2.392,-2.3911,-2.3919,-2.3865,-2.3871,-2.3877,-2.3877,-2.3876,-2.3878,-2.3871,-2.3856,-2.3814,-2.3807,-2.3817,-2.383,-2.3843,-2.3835,-2.3661,-2.3804,-2.3802,-2.3801,-2.38,-2.38,-2.4055,-2.4074,-2.4052,-2.4057,-2.4045,-2.4037,-2.405,-2.4024,-2.4028,-2.4023,-2.3994,-2.4005,-2.3986,-2.3971,-2.396,-2.3968,-2.394,-2.3955,-2.3958,-2.3963,-2.397,-2.3843,-2.3966,-2.3966,-2.3965,-2.3965,-2.3965,0,-2.4194,-2.4177,-2.4182,-2.417,-2.4173,-2.4133,-2.412,-2.4125,-2.4136,-2.4121,-2.4121,-2.4127,-2.4129,-2.4097,-2.4094,-2.4106,-2.4087,-2.4107,-2.4105,-2.4102,-2.3995,-2.3986,-2.4123,-2.4123,-2.4123,-2.4123,-2.4123,-2.4123,-2.4267,-2.4295,-2.4271,-2.4293,-2.4275,-2.4285,-2.4281,-2.4273,-2.4261,-2.427,-2.4271,-2.425,-2.4228,-2.4223,-2.4222,-2.4213,-2.4214,-2.4241,-2.4225,-2.4125,-2.411,-2.4095,-2.4086,-2.4242,-2.4242,-2.433,-2.4331,-2.4331]},{"header":{"parameterUnit":"m.s-1","parameterCategory":1,"la1":30.2991,"la2":30.254,"lo1":-89.0895,"lo2":-89.0444,"dy":0.0017,"dx":0.0017,"nx":28,"ny":28,"refTime":"2023-09-25T03:00:00:Z","depth":0,"parameterNumber":3,"parameterNumberName":"V-component_of_WINDS"},"data":[0,0,0,0,0,0,0,0,0,0,0,0,0,0,0,0,0,0,0,0,0,0,0,0,0,0,0,0,0,0,0,0,0,0,0,0,0,0,0,0,0,0,0,0,0,0,0,0,0,0,0,0,0,0,0,0,0,0,-3.14,-3.14,0,-3.1438,-3.1439,-3.1439,-3.1392,-3.139,-3.1389,-3.1387,-3.1423,-3.1426,-3.1428,0,0,0,0,0,0,0,0,0,0,0,0,0,-3.1282,-3.1284,-3.14,-3.14,-3.1401,-3.1438,-3.1439,-3.1439,-3.1392,-3.139,-3.1388,-3.1386,-3.1422,-3.1425,-3.1428,0,0,0,0,0,0,0,0,0,0,0,0,0,-3.1328,-3.1285,-3.14,-3.1382,-3.1381,-3.1438,-3.1439,-3.1439,-3.1393,-3.139,-3.1388,-3.1385,-3.1421,-3.1425,-3.1429,-3.1504,0,0,-3.1441,-3.1442,0,0,0,0,0,0,0,0,-3.1325,-3.1332,-3.1384,-3.1383,-3.1382,-3.1408,-3.141,-3.1461,-3.1393,-3.1388,-3.1387,-3.1384,-3.142,-3.1424,-3.1436,-3.1506,-3.1507,-3.1441,-3.1443,-3.1445,-3.1446,0,0,0,0,0,0,0,-3.1322,-3.133,-3.1415,-3.1385,-3.1384,-3.1371,-3.1374,-3.142,-3.1418,-3.1388,-3.1385,-3.139,-3.1419,-3.1433,-3.1437,-3.1508,-3.1441,-3.1444,-3.1447,-3.1448,-3.164,-3.1643,0,0,0,0,0,0,-3.1322,-3.1328,-3.1414,-3.1416,-3.1347,-3.1375,-3.1379,-3.1402,-3.1417,-3.1417,-3.1393,-3.1388,-3.1428,-3.1432,-3.1438,-3.1526,-3.1445,-3.1448,-3.1451,-3.1637,-3.1641,-3.1644,0,0,0,0,0,0,-3.1319,-3.133,-3.1412,-3.1371,-3.1381,-3.138,-3.1406,-3.1404,-3.1418,-3.1421,-3.142,-3.1408,-3.1426,-3.1433,-3.1488,-3.1527,-3.145,-3.1454,-3.1634,-3.1638,-3.1642,-3.1704,0,0,0,0,0,0,-3.1316,-3.1329,-3.1359,-3.1372,-3.1383,-3.1463,-3.1408,-3.1407,-3.1425,-3.142,-3.1434,-3.1434,-3.1424,-3.1483,-3.1492,-3.1531,-3.1457,-3.163,-3.1636,-3.1641,-3.1699,-3.171,-3.172,0,0,0,0,0,-3.1312,-3.1374,-3.1361,-3.1371,-3.142,-3.1465,-3.1471,-3.1459,-3.1429,-3.1458,-3.1459,-3.1434,-3.1522,-3.1489,-3.1499,-3.1539,-3.1628,-3.1634,-3.164,-3.1694,-3.1708,-3.172,0,0,0,0,0,0,-3.1364,-3.1376,-3.1361,-3.1429,-3.1447,-3.1457,-3.1493,-3.1475,-3.15,-3.1494,-3.1477,-3.1481,-3.154,-3.1545,-3.1508,-3.1613,-3.1569,-3.1578,-3.1607,-3.162,-3.163,-3.1627,-3.146,0,0,0,0,0,-3.1384,-3.1421,-3.1428,-3.1488,-3.1498,-3.1495,-3.1514,-3.1503,-3.152,-3.1527,-3.1532,-3.1548,-3.1579,-3.16,-3.1629,-3.17,-3.1701,-3.1733,-3.1743,-3.1752,-3.1759,-3.1796,-3.1809,-3.1664,-3.1664,-3.1664,0,0,-3.1425,-3.1436,-3.146,-3.1499,-3.1511,-3.1548,-3.1501,-3.1542,-3.1569,-3.1532,-3.1585,-3.159,-3.1607,-3.167,-3.1698,-3.1676,-3.18,-3.176,-3.1767,-3.1769,-3.1803,-3.1817,-3.1829,-3.1668,-3.1668,-3.1667,0,0,-3.1518,-3.1531,-3.1581,-3.1595,-3.1614,-3.1611,-3.1624,-3.1637,-3.1639,-3.1692,-3.1665,-3.1696,-3.175,-3.1763,-3.1777,-3.1875,-3.1852,-3.1884,-3.1939,-3.1975,-3.1986,-3.1996,-3.203,-3.2042,-3.1892,-3.1892,-3.1892,0,-3.1566,-3.1622,-3.1609,-3.1653,-3.167,-3.164,-3.169,-3.1703,-3.1731,-3.1743,-3.1719,-3.1786,-3.1795,-3.186,-3.1884,-3.1897,-3.1909,-3.1882,-3.1986,-3.1996,-3.2005,-3.2036,-3.2049,-3.1896,-3.1895,-3.1895,-3.1895,0,-3.1679,-3.1718,-3.1756,-3.1785,-3.1807,-3.1853,-3.1847,-3.187,-3.1858,-3.1857,-3.191,-3.1921,-3.1951,-3.1966,-3.1954,-3.2029,-3.2015,-3.1989,-3.1944,-3.2023,-3.2052,-3.2064,-3.1901,-3.19,-3.1899,-3.1898,0,0,-3.1805,-3.1826,-3.1841,-3.1853,-3.1872,-3.1901,-3.1946,-3.1976,-3.1996,-3.2016,-3.2052,-3.2098,-3.2074,-3.209,-3.2079,-3.2111,-3.2186,-3.208,-3.208,-3.2098,-3.2268,-3.2286,-3.2301,-3.2171,-3.2173,-3.2175,-3.2266,0,-3.1898,-3.1976,-3.1966,-3.2041,-3.2076,-3.2048,-3.2086,-3.2102,-3.2102,-3.2131,-3.2131,-3.2164,-3.213,-3.2139,-3.2169,-3.217,-3.2219,-3.2164,-3.2203,-3.2204,-3.2198,-3.2316,-3.2336,-3.2421,-3.2277,-3.2279,-3.2281,0,-3.2016,-3.2041,-3.2119,-3.2132,-3.2147,-3.2182,-3.2208,-3.2237,-3.2253,-3.2251,-3.2268,-3.2252,-3.2295,-3.2251,-3.231,-3.2272,-3.2288,-3.229,-3.2293,-3.2295,-3.2246,-3.232,-3.2448,-3.2461,-3.2299,-3.2297,-3.2296,0,-3.2098,-3.2152,-3.2205,-3.2217,-3.2234,-3.2259,-3.2267,-3.2281,-3.2299,-3.2322,-3.2333,-3.2361,-3.2375,-3.2396,-3.2387,-3.2356,-3.2447,-3.2402,-3.2445,-3.2445,-3.2464,-3.2463,-3.2595,-3.2477,-3.2476,-3.2476,-3.2476,0,-3.2202,-3.2251,-3.2243,-3.2276,-3.2329,-3.2317,-3.2369,-3.2374,-3.2386,-3.2418,-3.2395,-3.2425,-3.2412,-3.2441,-3.2434,-3.2482,-3.249,-3.2488,-3.2485,-3.249,-3.249,-3.2498,-3.2492,-3.248,-3.2479,-3.2478,-3.2478,0,-3.2303,-3.23,-3.2356,-3.2368,-3.2372,-3.2411,-3.242,-3.245,-3.2449,-3.2489,-3.2498,-3.2496,-3.2529,-3.2522,-3.2558,-3.2553,-3.2614,-3.2605,-3.2609,-3.2606,-3.2649,-3.2644,-3.279,-3.2808,-3.2679,-3.2681,-3.2682,0,-3.2369,-3.2405,-3.2421,-3.2442,-3.2452,-3.2485,-3.2504,-3.2493,-3.2513,-3.2534,-3.2561,-3.2592,-3.2617,-3.267,-3.2671,-3.2698,-3.2688,-3.2738,-3.2692,-3.2695,-3.2687,-3.2685,-3.2688,-3.2746,-3.2748,-3.2749,-3.275,0,-3.2485,-3.2481,-3.251,-3.2539,-3.2562,-3.2584,-3.2603,-3.262,-3.2611,-3.2635,-3.2668,-3.2687,-3.2724,-3.2755,-3.278,-3.2787,-3.2766,-3.2765,-3.2776,-3.2779,-3.278,-3.2779,-3.2632,-3.2761,-3.276,-3.2759,-3.2758,-3.2758,-3.2569,-3.26,-3.2616,-3.2649,-3.2662,-3.268,-3.2709,-3.2712,-3.274,-3.277,-3.2762,-3.28,-3.2814,-3.2846,-3.2855,-3.2884,-3.2865,-3.2882,-3.2885,-3.2889,-3.2894,-3.2777,-3.2889,-3.2888,-3.2888,-3.2888,-3.2888,0,-3.2683,-3.2692,-3.2722,-3.275,-3.2775,-3.2756,-3.2775,-3.2797,-3.2832,-3.2847,-3.2872,-3.291,-3.2939,-3.2943,-3.297,-3.2993,-3.2984,-3.3,-3.2997,-3.2999,-3.291,-3.2897,-3.3007,-3.3006,-3.3006,-3.3006,-3.3006,-3.3006,-3.2745,-3.2797,-3.2795,-3.2852,-3.286,-3.2898,-3.2911,-3.2927,-3.2939,-3.2984,-3.3008,-3.3011,-3.3021,-3.3049,-3.3075,-3.3075,-3.3085,-3.3105,-3.3101,-3.3017,-3.3006,-3.2994,-3.2982,-3.3108,-3.3108,-3.3188,-3.3188,-3.3189]}]]